Regional Weather Roundup
Issued by NWS Boston, MA

Current Version | Previous Version | Text Only | Print | Product List | Glossary On
Versions: 1 2 3 4 5 6 7 8 9 10 11 12 13 14 15 16 17 18 19 20 21 22 23 24 25 26 27 28 29 30 31 32 33 34 35 36 37 38 39 40 41 42 43 44 45 46 47 48 49
000 ASUS41 KBOX 210110 RWRBOX REGIONAL WEATHER ROUNDUP NATIONAL WEATHER SERVICE TAUNTON MA 800 PM EST SAT DEC 20 2014 NOTE: "FAIR" INDICATES FEW OR NO CLOUDS BELOW 12,000 FEET WITH NO SIGNIFICANT WEATHER AND/OR OBSTRUCTIONS TO VISIBILITY. THE FOLLOWING OBSERVATION LOCATIONS DO NOT REPORT PRESENT WEATHER...PROVINCETOWN... SMITHFIELD...BLOCK ISLAND...KEENE...AND OXFORD. MAZALL-210200- EASTERN MASSACHUSETTS CITY SKY/WX TMP DP RH WIND PRES REMARKS BOSTON FLURRIES 35 29 78 N13 30.31R WCI 26 BEVERLY CLOUDY 34 27 75 NE8 30.31R WCI 27 LAWRENCE CLOUDY 32 26 78 N8 30.33R WCI 25 BEDFORD CLOUDY 32 25 75 CALM 30.30S BLUE HILL N/A 30 30 100 N13G20 30.25S WCI 20 NORWOOD LGT SNOW 33 30 88 N6 30.29F FOG WCI 28 MARSHFIELD CLOUDY 39 34 81 NE14G21 30.29S WCI 31 PLYMOUTH LGT RAIN 33 33 100 N3 30.27S TAUNTON LGT SNOW 33 31 92 CALM 30.28S FOG NEW BEDFORD FLURRIES 32 31 96 N5 30.26F WCI 27 $$ MAZALL-210200- CAPE COD AND THE ISLANDS CITY SKY/WX TMP DP RH WIND PRES REMARKS FALMOUTH CLOUDY 34 32 93 N5 30.26S WCI 30 HYANNIS CLOUDY 38 35 89 NE6 30.25R CHATHAM LGT RAIN 38 35 89 NE3 30.26R PROVINCETOWN CLOUDY 39 32 75 NE14G21 30.29R WCI 31 NANTUCKET LGT RAIN 41 36 82 NE6 30.24S MARTHAS VNYRD LGT RAIN 36 34 92 N7 30.25S WCI 30 $$ MAZALL-210200- CENTRAL AND WESTERN MASSACHUSETTS CITY SKY/WX TMP DP RH WIND PRES REMARKS WORCESTER LGT SNOW 28 24 85 VRB6 30.26R FOG WCI 22 FITCHBURG CLOUDY 33 22 63 NE3 30.31S ORANGE CLOUDY 32 23 69 E5 30.28S WCI 27 SPRINGFIELD FLURRIES 31 24 73 CALM 30.28R WESTFIELD CLOUDY 33 21 61 NE5 30.28S WCI 29 NORTH ADAMS CLOUDY 25 19 78 CALM 30.29S PITTSFIELD CLOUDY 25 21 85 CALM 30.22F $$ RIZALL-210200- RHODE ISLAND CITY SKY/WX TMP DP RH WIND PRES REMARKS PROVIDENCE LGT SNOW 31 28 89 N10 30.29S FOG WCI 22 NEWPORT CLOUDY 31 29 92 N12 30.26F WCI 22 BLOCK ISLAND CLOUDY 36 28 75 N9 30.24F WCI 29 SMITHFIELD CLOUDY 30 21 69 N7 30.26F WCI 23 WESTERLY CLOUDY 34 27 75 N6 30.27S WCI 29 $$ CTZALL-210200- CONNECTICUT CITY SKY/WX TMP DP RH WIND PRES REMARKS BRADLEY INTL CLOUDY 31 22 69 N3 30.28S HARTFORD CLOUDY 31 22 69 VRB3 30.29F BRIDGEPORT CLOUDY 32 28 85 N5 30.28F WCI 27 DANBURY CLOUDY 29 21 72 CALM 30.27F GROTON CLOUDY 34 27 75 N6 30.27S WCI 29 NEW HAVEN CLOUDY 34 24 67 NW3 30.27F CHESTER CLOUDY 32 25 74 N3 30.26F MERIDEN CLOUDY 31 23 72 CALM 30.28F WILLIMANTIC CLOUDY 33 25 72 N8 30.28F WCI 26 OXFORD CLOUDY 28 19 69 CALM 30.25F $$ MEZ002-015-021-024-NHZ003-005-008-011-012-014-VTZ005-008-210200- NORTHERN NEW ENGLAND CITY SKY/WX TMP DP RH WIND PRES REMARKS PORTLAND ME MOCLDY 27 22 81 NE8 30.37R WCI 19 BANGOR ME CLOUDY 23 19 85 N7 30.37R WCI 15 CONCORD NH CLOUDY 31 22 69 CALM 30.32R MANCHESTER NH CLOUDY 32 24 72 NE7 30.31R WCI 26 NASHUA NH CLOUDY 32 25 76 CALM 30.33R PORTSMOUTH NH CLOUDY 31 22 70 N5 30.33R WCI 26 JAFFREY NH CLOUDY 30 21 69 CALM 30.26S KEENE NH CLOUDY 32 19 59 NE3 30.28F BURLINGTON VT PTCLDY 18 13 80 CALM 30.32R MT. WASHINGTON PTCLDY 23 -9 23 E17 N/A WCI 9 $$ NYZ052-076-210200- EASTERN NEW YORK CITY SKY/WX TMP DP RH WIND PRES REMARKS ALBANY CLOUDY 28 20 71 N3 30.31F NEW YORK CITY CLOUDY 32 22 66 NE7 30.28F WCI 26 $$ ANZALL-210200- MARINE OBSERVATIONS STATION/POSITION TIME TEMP WIND PRES VSBY WAVE AIR SEA DIR/SP/G HT/PER (UTC) (F) (DEG/KT/KT) (MB) (MI) (FT/S) BOSTON BUOY 0050 38 45 40/ 19/ 21 1025.3R 5/ 6 BUZZARDS BAY 0000 360/ 16/ 17 1025.1R NANTUCKET SOUND 0050 42 43 60/ 14/ 16 1023.9S 1/ 3 MASS BAY-STELLWA 0004 36 46 30/ 19/ 23 N/A 1 7/8 5/ 5 ISLE OF SHOALS 0100 34 50/ 13/ 15 1026.4R S OF BLOCK IS 0008 51 N/A 3/ 5 $$ ......................KEY......................... SKY/WX - SKY CONDITION/PRESENT WEATHER TMP - TEMPERATURE IN FAHRENHEIT DWPT - DEWPOINT IN FAHRENHEIT RH - RELATIVE HUMIDITY IN PERCENT WIND - DIRECTION AND SPEED IN MPH PRES - MEAN SEA LEVEL PRESSURE IN INCHES OF HG WCI - WIND CHILL INDEX VSB - VISIBILITY IN MILES HX - HEAT INDEX TC - TEMPERATURE IN CELSIUS VRB - VARIABLE WIND DIRECTION N/A - NOT AVAILABLE

USA.gov is the U.S. government's official web portal to all federal, state and local government web resources and services.